Total_Precipitation_Accumulation
0.14 0.16 0.23 0.42 0.53 0.44 0.34 0.31 0.39 0.38 0.37 0.41 0.48 0.58 0.57 0.51 0.49 0.48 0.47 0.43 0.42 0.42 0.40 0.40 0.40 0.40 0.49 0.64 0.79 0.98 1.22 1.21 1.06 0.98 0.91 0.78 0.71 0.71 0.69 0.73 0.70 0.71 0.80 0.90
0.07 0.09 0.12 0.22 0.26 0.22 0.15 0.19 0.28 0.34 0.39 0.43 0.50 0.57 0.53 0.45 0.38 0.32 0.30 0.29 0.29 0.27 0.26 0.22 0.21 0.22 0.23 0.33 0.52 0.70 0.88 0.96 0.92 0.82 0.72 0.68 0.67 0.65 0.62 0.62 0.57 0.56 0.59 0.66
0.07 0.07 0.10 0.18 0.17 0.17 0.21 0.20 0.21 0.32 0.43 0.47 0.60 0.79 0.70 0.53 0.43 0.30 0.24 0.24 0.24 0.23 0.23 0.22 0.21 0.21 0.21 0.26 0.33 0.45 0.59 0.68 0.68 0.62 0.56 0.53 0.56 0.55 0.51 0.45 0.46 0.44 0.44 0.44
0.15 0.16 0.28 0.28 0.21 0.29 0.38 0.31 0.26 0.34 0.42 0.52 0.85 1.06 0.69 0.45 0.41 0.34 0.24 0.22 0.22 0.22 0.20 0.18 0.18 0.19 0.21 0.23 0.25 0.28 0.35 0.41 0.42 0.41 0.41 0.41 0.42 0.42 0.40 0.39 0.38 0.37 0.42 0.49
0.22 0.24 0.45 0.38 0.20 0.33 0.40 0.35 0.27 0.34 0.41 0.43 0.47 0.43 0.27 0.17 0.17 0.20 0.15 0.13 0.12 0.12 0.11 0.09 0.09 0.11 0.12 0.14 0.15 0.17 0.18 0.20 0.22 0.23 0.27 0.32 0.33 0.37 0.45 0.46 0.43 0.43 0.52 0.59
0.19 0.22 0.32 0.29 0.11 0.18 0.28 0.34 0.16 0.16 0.18 0.14 0.10 0.11 0.14 0.12 0.08 0.07 0.06 0.06 0.05 0.04 0.04 0.04 0.05 0.06 0.07 0.09 0.10 0.10 0.11 0.11 0.14 0.16 0.19 0.23 0.28 0.31 0.32 0.32 0.37 0.44 0.45 0.43
0.13 0.16 0.14 0.08 0.08 0.12 0.28 0.31 0.10 0.07 0.06 0.03 0.03 0.04 0.08 0.12 0.07 0.05 0.04 0.04 0.04 0.03 0.03 0.04 0.04 0.05 0.05 0.06 0.08 0.09 0.12 0.13 0.15 0.17 0.17 0.19 0.17 0.14 0.16 0.21 0.23 0.25 0.26 0.31
0.11 0.15 0.12 0.06 0.09 0.14 0.14 0.08 0.05 0.04 0.03 0.03 0.02 0.02 0.04 0.07 0.05 0.04 0.03 0.03 0.04 0.04 0.04 0.04 0.04 0.05 0.05 0.06 0.08 0.09 0.10 0.12 0.13 0.12 0.12 0.13 0.13 0.11 0.11 0.15 0.18 0.21 0.23 0.28
0.13 0.12 0.11 0.09 0.08 0.06 0.04 0.04 0.03 0.03 0.03 0.03 0.02 0.02 0.01 0.03 0.03 0.02 0.02 0.04 0.05 0.07 0.11 0.11 0.07 0.06 0.06 0.07 0.09 0.10 0.10 0.12 0.13 0.12 0.12 0.10 0.09 0.10 0.11 0.13 0.16 0.19 0.23 0.29
0.12 0.08 0.08 0.07 0.05 0.03 0.02 0.03 0.02 0.03 0.02 0.02 0.02 0.02 0.01 0.02 0.03 0.02 0.02 0.05 0.08 0.12 0.15 0.17 0.12 0.10 0.09 0.09 0.10 0.11 0.11 0.11 0.12 0.14 0.15 0.11 0.10 0.10 0.10 0.11 0.14 0.18 0.25 0.31
0.10 0.07 0.06 0.06 0.04 0.03 0.02 0.01 0.02 0.02 0.01 0.01 0.01 0.01 0.01 0.02 0.02 0.02 0.03 0.03 0.07 0.13 0.14 0.14 0.14 0.13 0.12 0.12 0.10 0.10 0.10 0.12 0.12 0.15 0.16 0.13 0.10 0.09 0.10 0.10 0.14 0.19 0.23 0.28
0.09 0.06 0.05 0.04 0.03 0.03 0.03 0.02 0.02 0.03 0.02 0.01 0.01 0.02 0.01 0.02 0.02 0.02 0.02 0.03 0.05 0.08 0.10 0.11 0.12 0.13 0.11 0.11 0.11 0.11 0.12 0.12 0.12 0.11 0.11 0.13 0.14 0.11 0.10 0.10 0.12 0.13 0.14 0.18
0.07 0.07 0.05 0.04 0.03 0.03 0.04 0.02 0.01 0.02 0.03 0.02 0.02 0.02 0.02 0.02 0.03 0.03 0.03 0.03 0.05 0.06 0.06 0.08 0.09 0.09 0.09 0.08 0.08 0.07 0.09 0.10 0.10 0.10 0.09 0.09 0.12 0.17 0.18 0.14 0.10 0.08 0.09 0.14
0.05 0.06 0.07 0.05 0.03 0.04 0.04 0.03 0.02 0.02 0.02 0.03 0.02 0.02 0.03 0.03 0.03 0.03 0.04 0.04 0.05 0.06 0.06 0.05 0.06 0.06 0.07 0.06 0.06 0.07 0.08 0.08 0.09 0.11 0.11 0.10 0.11 0.17 0.29 0.34 0.28 0.16 0.13 0.14
0.04 0.05 0.06 0.07 0.05 0.04 0.03 0.03 0.02 0.02 0.02 0.02 0.02 0.03 0.03 0.04 0.04 0.05 0.05 0.05 0.05 0.05 0.05 0.04 0.05 0.06 0.06 0.05 0.05 0.06 0.08 0.09 0.13 0.17 0.15 0.13 0.14 0.21 0.28 0.21 0.19 0.21 0.19 0.16
0.03 0.03 0.05 0.07 0.07 0.06 0.05 0.04 0.03 0.03 0.03 0.02 0.03 0.04 0.05 0.06 0.07 0.08 0.06 0.06 0.05 0.04 0.04 0.04 0.05 0.06 0.07 0.06 0.05 0.05 0.06 0.10 0.13 0.21 0.20 0.14 0.15 0.19 0.17 0.16 0.18 0.20 0.20 0.19
0.03 0.03 0.04 0.07 0.07 0.07 0.06 0.06 0.05 0.04 0.03 0.04 0.05 0.06 0.06 0.06 0.08 0.08 0.07 0.06 0.05 0.03 0.03 0.04 0.04 0.06 0.08 0.09 0.08 0.07 0.07 0.09 0.11 0.16 0.19 0.15 0.15 0.17 0.16 0.16 0.18 0.19 0.18 0.19
0.04 0.03 0.04 0.06 0.07 0.08 0.07 0.07 0.06 0.04 0.04 0.05 0.06 0.07 0.06 0.07 0.08 0.08 0.07 0.06 0.05 0.04 0.05 0.05 0.06 0.07 0.08 0.09 0.08 0.07 0.08 0.10 0.11 0.13 0.15 0.15 0.15 0.17 0.18 0.16 0.15 0.17 0.18 0.19
0.06 0.06 0.06 0.07 0.09 0.09 0.08 0.07 0.06 0.05 0.05 0.06 0.06 0.06 0.06 0.08 0.08 0.07 0.07 0.06 0.05 0.05 0.05 0.05 0.07 0.07 0.07 0.08 0.09 0.09 0.10 0.11 0.11 0.12 0.13 0.12 0.12 0.13 0.16 0.18 0.17 0.18 0.20 0.20
0.09 0.09 0.09 0.09 0.09 0.09 0.08 0.07 0.07 0.07 0.07 0.07 0.07 0.06 0.07 0.08 0.06 0.04 0.05 0.05 0.04 0.04 0.05 0.06 0.06 0.07 0.06 0.07 0.09 0.10 0.11 0.11 0.11 0.12 0.13 0.13 0.13 0.13 0.14 0.15 0.19 0.23 0.23 0.22
0.13 0.11 0.10 0.09 0.09 0.09 0.09 0.08 0.08 0.08 0.07 0.07 0.08 0.07 0.07 0.06 0.05 0.05 0.05 0.07 0.07 0.06 0.07 0.09 0.07 0.07 0.08 0.11 0.12 0.12 0.12 0.12 0.12 0.14 0.16 0.17 0.18 0.19 0.19 0.19 0.22 0.27 0.25 0.25
0.13 0.12 0.10 0.10 0.11 0.12 0.11 0.10 0.10 0.09 0.09 0.08 0.07 0.06 0.06 0.06 0.06 0.07 0.07 0.08 0.09 0.11 0.11 0.11 0.09 0.11 0.16 0.19 0.15 0.14 0.15 0.16 0.17 0.18 0.20 0.21 0.22 0.23 0.24 0.25 0.25 0.25 0.24 0.26
0.11 0.11 0.12 0.12 0.11 0.12 0.12 0.11 0.10 0.10 0.11 0.10 0.08 0.07 0.07 0.07 0.07 0.08 0.09 0.09 0.10 0.13 0.14 0.14 0.15 0.18 0.24 0.20 0.18 0.18 0.19 0.21 0.22 0.21 0.23 0.26 0.28 0.29 0.30 0.31 0.31 0.29 0.28 0.30
0.12 0.13 0.15 0.15 0.13 0.14 0.15 0.13 0.11 0.11 0.11 0.10 0.09 0.08 0.10 0.12 0.12 0.11 0.12 0.13 0.15 0.16 0.15 0.17 0.20 0.23 0.25 0.21 0.19 0.19 0.20 0.22 0.23 0.23 0.26 0.30 0.32 0.32 0.32 0.33 0.33 0.32 0.32 0.33
0.15 0.15 0.16 0.16 0.17 0.17 0.16 0.15 0.14 0.13 0.13 0.13 0.12 0.11 0.12 0.14 0.16 0.17 0.19 0.19 0.19 0.19 0.18 0.20 0.23 0.24 0.22 0.22 0.22 0.22 0.23 0.25 0.28 0.30 0.30 0.31 0.33 0.34 0.35 0.36 0.37 0.38 0.38 0.38
0.18 0.18 0.17 0.17 0.19 0.20 0.20 0.21 0.21 0.19 0.19 0.19 0.17 0.15 0.16 0.16 0.17 0.18 0.20 0.22 0.24 0.25 0.24 0.25 0.27 0.28 0.26 0.26 0.27 0.27 0.28 0.29 0.30 0.31 0.32 0.35 0.35 0.36 0.37 0.38 0.39 0.41 0.43 0.44
0.22 0.20 0.20 0.21 0.22 0.23 0.25 0.26 0.27 0.26 0.25 0.24 0.22 0.20 0.21 0.22 0.22 0.22 0.22 0.24 0.27 0.28 0.28 0.29 0.31 0.34 0.36 0.37 0.37 0.35 0.33 0.32 0.32 0.33 0.36 0.39 0.40 0.41 0.40 0.40 0.41 0.43 0.45 0.46